Location: Home
(42.5358°N, 72.7383°W)
Time: 22:26:43
(UTC-05:00)

Altair - Pass Details

Date: 08 December 2021
Orbit: 1501 x 1683 km, 47.2° (Epoch: 26 January)

Event Time Altitude Azimuth Distance (km) Brightness Sun altitude
Rises 20:48:07 0° 296° (WNW) 4,674 10.7 -48.8°
Reaches altitude 10° 20:51:19 10° 290° (WNW) 3,675 10.0 -49.4°
Enters shadow 20:56:12 32° 269° (W) 2,376 8.7 -50.3°
